Location: Proctor
(47.8934°N, 114.3048°W)
Time: 16:39:43
(UTC+00:00)

Transit 4A - Pass Details

Date: 12 May 2025
Orbit: 866 x 975 km, 66.8° (Epoch: 13 June)

Event Time Altitude Azimuth Distance (km) Brightness Sun altitude
Rises 05:02:59 0° 235° (SW) 3,662 11.0 -15.8°
Reaches altitude 10° 05:05:40 10° 242° (WSW) 2,714 10.4 -16.1°
Maximum altitude 05:11:44 46° 314° (NW) 1,281 9.1 -16.7°
Drops below altitude 10° 05:17:45 10° 27° (NNE) 2,678 10.7 -17.2°
Sets 05:20:24 0° 34° (NE) 3,610 11.3 -17.5°
